K0HYD Weather Reports


Display with metric or nautical units.
time (UTC)temp
F
wind
direction
speed
MPH
gust
MPH
rain 1hr
in
rain 24hr
in
rain mn
in
humidity
%
barometer
mb
20260502130640 46 32 0.0 1.0 0.00 0.00 0.06 84 1022.4
20260502123638 42 41 0.0 0.0 0.00 0.00 0.06 92 1022.1
20260502122137 40 47 0.0 0.0 0.00 0.00 0.06 95 1021.9
20260502120636 40 32 0.0 1.0 0.00 0.00 0.06 96 1021.6
20260502115135 40 60 0.0 0.0 0.00 0.00 0.06 96 1021.5
20260502113634 39 352 0.0 0.0 0.00 0.00 0.06 95 1021.3
20260502112134 39 349 0.0 0.0 0.00 0.00 0.06 95 1021.1
20260502110632 39 349 0.0 0.0 0.00 0.00 0.06 94 1021.0
20260502105131 40 349 0.0 0.0 0.00 0.00 0.06 94 1020.9
20260502103630 40 349 0.0 0.0 0.00 0.00 0.05 94 1020.9
20260502100628 42 349 0.0 0.0 0.00 0.00 0.05 94 1020.8
20260502090625 46 39 1.0 1.0 0.00 0.00 0.05 95 1020.6
20260502065116 50 118 0.0 0.0 0.00 0.00 0.05 91 1020.3
20260502063615 50 239 0.0 0.0 0.00 0.00 0.04 90 1020.9
20260502062114 50 239 0.0 0.0 0.00 0.00 0.04 89 1020.3
20260502060613 51 142 0.0 0.0 0.00 0.00 0.03 88 1020.4
20260502055112 51 141 0.0 0.0 0.00 0.00 0.03 85 1020.0
20260502052110 52 260 0.0 1.0 0.00 0.00 0.01 84 1020.3
20260502050609 52 33 0.0 1.0 0.00 0.00 0.01 79 1020.1
20260502045109 54 156 0.0 0.0 0.00 0.00 0.00 75 1019.7
20260502042107 54 231 0.0 0.0 0.00 0.00 0.00 68 1019.3
20260502040605 55 244 0.0 1.0 0.00 0.00 0.00 65 1019.3
20260502035104 54 104 0.0 0.0 0.00 0.00 0.00 68 1018.9
20260502033603 54 155 0.0 0.0 0.00 0.00 0.00 68 1019.6
20260502032103 54 155 0.0 0.0 0.00 0.00 0.00 67 1019.6
20260502030602 54 13 0.0 0.0 0.00 0.00 0.00 67 1019.5
20260502023600 54 13 0.0 0.0 0.00 0.00 0.00 66 1019.3
20260502022059 54 13 0.0 0.0 0.00 0.00 0.00 66 1018.9
20260502020558 54 13 0.0 0.0 0.00 0.00 0.00 64 1018.7
20260502015057 55 13 0.0 0.0 0.00 0.00 0.00 59 1018.6
20260502013556 56 35 0.0 1.0 0.00 0.00 0.00 58 1018.3
20260502012055 58 32 0.0 1.0 0.00 0.00 0.00 56 1018.1
20260502010554 58 18 0.0 1.0 0.00 0.00 0.00 55 1018.3
20260502005053 59 35 0.0 1.0 0.00 0.00 0.00 55 1017.9
20260502003552 59 132 0.0 1.0 0.00 0.00 0.00 54 1017.7
20260502000550 60 21 0.0 2.0 0.00 0.00 0.00 51 1017.7
20260501233548 61 19 0.0 1.0 0.00 0.00 0.00 52 1017.4
20260501230546 62 32 2.0 6.0 0.00 0.00 0.00 51 1017.0
20260501225045 62 23 3.0 14.0 0.00 0.00 0.00 47 1017.0
20260501223544 72 68 0.0 1.0 0.00 0.00 0.00 33 1016.6
20260501222043 71 252 0.0 1.0 0.00 0.00 0.00 34 1016.4
20260501220543 71 65 0.0 0.0 0.00 0.00 0.00 34 1016.4
20260501212039 72 316 0.0 1.0 0.00 0.00 0.00 30 1016.8
20260501210539 69 226 0.0 1.0 0.00 0.00 0.00 29 1017.1
20260501205038 68 262 0.0 1.0 0.00 0.00 0.00 29 1017.4
20260501203537 69 253 0.0 1.0 0.00 0.00 0.00 32 1017.6
20260501202036 68 351 0.0 1.0 0.00 0.00 0.00 30 1017.9
20260501200535 71 39 0.0 1.0 0.00 0.00 0.00 27 1018.3
20260501193533 71 212 0.0 0.0 0.00 0.00 0.00 30 1018.7
20260501192032 69 221 0.0 2.0 0.00 0.00 0.00 29 1019.0
20260501190531 67 53 0.0 1.0 0.00 0.00 0.00 29 1019.3
20260501185030 68 6 0.0 1.0 0.00 0.00 0.00 28 1019.4
20260501182028 68 143 0.0 6.0 0.00 0.00 0.00 27 1019.6
20260501180527 69 134 0.0 1.0 0.00 0.00 0.00 29 1019.7
20260501172024 67 353 0.0 1.0 0.00 0.00 0.00 30 1020.1
20260501170523 66 84 0.0 1.0 0.00 0.00 0.00 34 1020.3
20260501165022 65 34 0.0 1.0 0.00 0.00 0.00 36 1020.3
20260501160520 65 236 0.0 1.0 0.00 0.00 0.00 41 1020.6
20260501153518 63 190 0.0 1.0 0.00 0.00 0.00 44 1020.5
20260501152017 62 35 0.0 1.0 0.00 0.00 0.00 45 1020.4
20260501150516 61 132 0.0 3.0 0.00 0.00 0.00 49 1020.6